�N����,����,�~����,�C��,���x,�C��,����,���ϕ���,�ő�u�ԕ���,�ő厞����,���˗�,�I�_���x,�n�����x,�ő啗���N��,DTYPE
"23/08/17","00:10",0.0,26.1,89.5,999.6,316.4,1.0,1.7,329.5,0.00,24.3,26.4,"00:04:00",1
"23/08/17","00:20",0.0,26.2,89.4,999.8,314.3,0.8,1.8,342.1,0.00,24.4,26.5,"00:10:16",1
"23/08/17","00:30",0.0,26.2,89.4,999.3,279.3,0.8,1.4,260.5,0.00,24.4,26.5,"00:22:08",1
"23/08/17","00:40",0.0,26.2,89.3,999.6,301.7,1.0,1.6,297.1,0.00,24.3,26.4,"00:38:08",1
"23/08/17","00:50",0.0,26.2,89.2,999.1,288.3,0.7,1.3,322.1,0.00,24.3,26.3,"00:43:36",1
"23/08/17","01:00",0.0,26.1,89.3,999.3,274.5,0.8,1.9,286.4,0.00,24.2,26.5,"00:54:56",1
"23/08/17","01:10",0.0,26.1,89.3,999.6,318.8,1.1,1.9,324.8,0.00,24.2,26.4,"01:00:48",1
"23/08/17","01:20",0.0,26.0,89.3,999.3,332.9,0.8,1.4,320.7,0.00,24.1,26.3,"01:11:28",1
"23/08/17","01:30",0.0,25.9,89.5,999.6,306.0,1.0,1.7,335.2,0.00,24.1,26.3,"01:29:12",1
"23/08/17","01:40",0.0,25.9,89.6,999.8,334.2,1.2,2.1,335.0,0.00,24.1,26.2,"01:31:12",1
"23/08/17","01:50",0.0,25.8,89.7,999.8,337.1,0.7,1.6,321.8,0.00,24.0,26.4,"01:48:56",1
"23/08/17","02:00",0.0,25.7,89.9,999.3,345.5,0.6,1.4,326.1,0.00,24.0,26.3,"01:54:00",1
"23/08/17","02:10",0.0,25.7,90.1,999.6,319.4,0.8,1.3,341.0,0.00,24.0,26.1,"02:04:24",1
"23/08/17","02:20",0.0,25.7,90.4,999.3,286.2,0.6,1.1,330.6,0.00,24.0,26.3,"02:13:36",1
"23/08/17","02:30",0.0,25.6,90.7,999.6,309.0,1.0,1.6,319.0,0.00,24.0,26.5,"02:24:40",1
"23/08/17","02:40",0.0,25.7,90.7,999.6,305.7,0.6,1.3,305.1,0.00,24.1,26.3,"02:30:48",1
"23/08/17","02:50",0.0,25.8,90.8,999.3,322.1,0.6,1.0,342.5,0.00,24.2,26.3,"02:40:24",1
"23/08/17","03:00",0.0,25.7,91.0,999.6,321.4,0.8,1.6,328.8,0.00,24.2,26.3,"02:55:12",1
"23/08/17","03:10",0.0,25.7,91.1,999.6,332.4,0.7,1.4,334.7,0.00,24.2,26.2,"03:00:56",1
"23/08/17","03:20",0.0,25.8,91.2,999.8,304.4,0.3,0.8,320.4,0.00,24.3,26.3,"03:10:40",1
"23/08/17","03:30",0.0,25.8,91.2,999.8,302.2,0.3,0.9,335.4,0.00,24.3,26.0,"03:28:08",1
"23/08/17","03:40",0.0,25.8,91.4,999.8,338.1,0.7,1.3,334.6,0.00,24.3,26.3,"03:39:44",1
"23/08/17","03:50",0.0,25.8,91.5,999.8,280.5,0.7,1.2,326.8,0.00,24.3,26.2,"03:40:16",1
"23/08/17","04:00",0.0,25.7,91.7,999.8,265.1,1.0,1.7,242.0,0.00,24.3,26.1,"03:59:28",1
"23/08/17","04:10",0.0,25.8,91.7,999.8,293.6,0.8,1.7,319.1,0.00,24.4,26.2,"04:08:00",1
"23/08/17","04:20",0.0,25.9,91.7,999.8,343.1,0.7,1.6,342.6,0.00,24.5,26.2,"04:11:52",1
"23/08/17","04:30",0.0,25.8,91.7,999.8,297.4,0.5,1.0,317.4,0.00,24.4,26.0,"04:22:16",1
"23/08/17","04:40",0.0,25.8,91.7,999.8,329.0,0.7,1.1,316.6,0.00,24.4,26.1,"04:32:00",1
"23/08/17","04:50",0.0,25.8,91.8,1000.3,269.7,1.3,2.7,240.7,0.00,24.4,26.2,"04:46:08",1
"23/08/17","05:00",0.2,25.8,91.8,1000.0,331.3,1.6,3.2,315.3,0.00,24.4,26.2,"04:51:20",1
"23/08/17","05:10",0.0,25.9,91.8,1000.0,0.1,1.2,2.5,345.1,0.00,24.5,26.1,"05:03:28",1
"23/08/17","05:20",0.0,25.9,92.1,1000.0,259.5,1.1,2.1,212.2,0.00,24.6,26.0,"05:19:04",1
"23/08/17","05:30",0.0,25.9,92.2,1000.3,227.0,1.1,2.2,233.2,0.00,24.6,25.9,"05:23:44",1
"23/08/17","05:40",0.0,25.8,92.3,1000.3,313.6,0.8,1.8,344.0,0.01,24.5,26.1,"05:39:44",1
"23/08/17","05:50",0.0,26.1,92.4,1000.3,345.5,1.1,2.2,316.8,0.03,24.8,25.8,"05:49:36",1
"23/08/17","06:00",0.0,26.2,92.5,1000.0,321.9,1.0,2.5,354.1,0.04,24.9,26.0,"05:51:20",1
"23/08/17","06:10",0.8,26.1,92.4,1000.5,299.3,0.5,1.3,242.9,0.01,24.8,26.0,"06:04:08",1
"23/08/17","06:20",1.4,26.1,92.6,1000.5,188.8,0.3,0.9,198.5,0.01,24.8,26.1,"06:16:40",1
"23/08/17","06:30",1.8,26.0,92.7,1000.3,5.2,0.6,1.4,12.4,0.03,24.8,26.2,"06:22:24",1
"23/08/17","06:40",0.0,26.1,92.8,1000.5,302.5,0.3,1.3,348.7,0.03,24.9,26.1,"06:31:36",1
"23/08/17","06:50",0.0,26.3,93.0,1000.8,248.6,0.2,0.9,274.8,0.07,25.1,26.1,"06:45:12",1
"23/08/17","07:00",0.0,27.0,92.9,1000.5,230.3,0.3,1.0,184.4,0.27,25.8,25.9,"06:58:16",1
"23/08/17","07:10",0.0,27.3,92.1,999.8,162.6,0.5,1.1,154.3,0.24,25.9,26.1,"07:06:00",1
"23/08/17","07:20",0.0,27.6,92.2,1000.0,321.7,0.2,0.9,337.2,0.11,26.3,25.9,"07:19:04",1
"23/08/17","07:30",0.0,27.0,92.1,999.8,296.7,0.5,1.0,239.7,0.08,25.6,25.9,"07:23:12",1
"23/08/17","07:40",0.0,27.1,91.9,1000.3,277.9,0.3,1.2,218.9,0.11,25.7,26.1,"07:38:56",1
"23/08/17","07:50",0.0,27.5,91.8,1000.5,177.5,0.3,0.9,140.2,0.14,26.1,26.2,"07:43:28",1
"23/08/17","08:00",0.0,27.8,90.9,1000.5,193.8,0.5,1.1,199.6,0.18,26.2,26.1,"07:53:52",1
"23/08/17","08:10",0.0,28.3,91.0,1000.3,177.9,0.2,1.2,25.0,0.19,26.7,26.0,"08:06:56",1
"23/08/17","08:20",0.0,28.2,89.1,1000.5,314.9,0.7,1.8,207.9,0.18,26.3,26.2,"08:19:44",1
"23/08/17","08:30",0.0,28.2,89.4,1001.2,167.4,0.6,1.4,218.8,0.18,26.3,26.1,"08:26:56",1
"23/08/17","08:40",0.0,28.9,87.5,1001.5,139.4,0.6,1.3,211.6,0.19,26.7,26.4,"08:34:32",1
"23/08/17","08:50",0.0,29.1,85.9,1001.7,292.3,0.7,2.0,351.5,0.20,26.5,26.2,"08:47:52",1
"23/08/17","09:00",0.0,29.8,84.0,1001.7,60.6,0.6,1.4,28.5,0.24,26.8,26.3,"08:50:48",1
"23/08/17","09:10",0.0,30.3,81.6,1002.2,235.9,0.6,1.8,135.1,0.26,26.8,26.1,"09:00:02",1
"23/08/17","09:20",0.0,30.7,80.1,1002.4,111.5,0.5,1.2,3.3,0.22,26.9,26.3,"09:18:08",1
"23/08/17","09:30",0.0,30.6,78.6,1002.2,67.2,0.7,1.6,4.9,0.17,26.5,26.4,"09:21:12",1
"23/08/17","09:40",0.0,31.0,78.6,1001.9,125.6,0.7,1.9,109.9,0.27,26.9,26.6,"09:31:20",1
"23/08/17","09:50",0.0,31.5,74.7,1002.9,359.4,0.5,1.8,7.6,0.35,26.5,26.5,"09:42:32",1
"23/08/17","10:00",0.0,31.7,73.6,1002.6,85.1,0.6,1.9,15.6,0.22,26.4,26.4,"09:50:56",1
"23/08/17","10:10",0.0,31.7,73.1,1002.4,8.7,0.6,1.8,46.9,0.26,26.3,26.4,"10:03:12",1
"23/08/17","10:20",0.0,32.2,72.8,1002.6,132.9,0.8,2.1,130.4,0.38,26.7,26.5,"10:13:20",1
"23/08/17","10:30",0.0,31.7,71.4,1002.6,244.2,1.2,3.1,210.3,0.31,25.9,26.4,"10:25:20",1
"23/08/17","10:40",0.0,31.3,71.4,1002.6,220.1,2.2,3.6,205.8,0.31,25.5,26.8,"10:39:12",1
"23/08/17","10:50",0.0,31.9,71.4,1002.2,194.4,1.6,2.9,223.2,0.37,26.1,26.7,"10:40:24",1
"23/08/17","11:00",0.0,32.4,70.1,1001.9,194.0,1.1,2.5,226.6,0.35,26.3,26.6,"10:53:52",1
"23/08/17","11:10",0.0,33.0,67.5,1002.6,194.4,1.8,4.1,205.8,0.56,26.2,27.0,"11:09:12",1
"23/08/17","11:20",0.0,32.6,65.9,1002.6,207.8,2.5,7.1,211.9,0.39,25.4,26.8,"11:10:02",1
"23/08/17","11:30",0.0,32.3,67.3,1002.4,196.0,2.0,4.2,182.6,0.27,25.5,26.9,"11:20:32",1
"23/08/17","11:40",0.0,32.0,67.5,1001.9,208.8,1.6,3.6,208.0,0.26,25.3,26.9,"11:37:36",1
"23/08/17","11:50",0.0,32.4,66.7,1001.9,223.8,1.2,2.5,235.4,0.27,25.4,26.8,"11:44:16",1
"23/08/17","12:00",0.0,32.4,66.7,1001.9,216.7,1.8,4.3,218.3,0.28,25.4,27.0,"11:59:20",1
"23/08/17","12:10",0.0,32.5,66.1,1001.7,229.0,1.8,3.7,222.1,0.29,25.4,26.8,"12:01:04",1
"23/08/17","12:20",0.0,32.6,65.2,1001.9,243.7,1.6,4.1,217.3,0.26,25.3,26.9,"12:10:08",1
"23/08/17","12:30",0.0,32.7,66.2,1001.9,227.4,1.5,3.3,205.6,0.23,25.6,27.0,"12:22:32",1
"23/08/17","12:40",0.0,32.4,66.0,1001.5,253.1,1.2,4.4,201.6,0.21,25.3,27.2,"12:34:24",1
"23/08/17","12:50",0.0,32.3,66.7,1001.5,317.5,1.3,3.2,313.0,0.24,25.4,27.2,"12:47:20",1
"23/08/17","13:00",0.0,32.3,68.1,1001.2,321.6,1.2,3.4,320.7,0.23,25.7,27.2,"12:51:44",1
"23/08/17","13:10",0.0,31.9,66.9,1001.0,241.5,2.1,4.3,226.8,0.20,25.0,27.2,"13:03:36",1
"23/08/17","13:20",0.0,32.0,68.3,1001.0,298.6,1.5,3.7,220.8,0.19,25.5,27.1,"13:10:40",1
"23/08/17","13:30",0.0,31.7,68.7,1001.2,318.1,1.3,2.9,338.9,0.18,25.3,27.3,"13:21:12",1
"23/08/17","13:40",0.0,31.7,69.2,1001.0,248.5,1.2,3.7,228.5,0.20,25.4,27.3,"13:35:52",1
"23/08/17","13:50",0.0,31.9,69.0,1001.2,291.8,1.2,2.5,302.9,0.25,25.5,27.2,"13:42:08",1
"23/08/17","14:00",0.0,32.0,68.0,1001.0,315.4,1.2,3.6,328.9,0.26,25.4,27.3,"13:56:24",1
"23/08/17","14:10",0.0,31.7,68.7,1000.5,332.6,1.6,4.3,358.5,0.20,25.3,27.4,"14:08:48",1
"23/08/17","14:20",0.0,31.2,69.0,1000.8,336.2,1.8,3.5,340.2,0.14,24.9,27.4,"14:14:32",1
"23/08/17","14:30",0.0,31.1,69.7,1000.5,315.2,1.1,2.8,329.1,0.11,24.9,27.3,"14:22:32",1
"23/08/17","14:40",0.0,31.0,70.1,1000.5,274.5,1.0,2.7,224.2,0.10,24.9,27.3,"14:34:48",1
"23/08/17","14:50",0.0,31.0,70.6,1000.0,282.9,1.0,3.1,342.8,0.10,25.1,27.5,"14:44:48",1
"23/08/17","15:00",0.0,31.2,71.4,1000.3,267.3,1.0,2.5,235.2,0.11,25.4,27.2,"14:53:36",1
"23/08/17","15:10",0.0,31.2,70.7,1000.3,289.5,1.0,3.1,323.4,0.12,25.3,27.5,"15:01:36",1
"23/08/17","15:20",0.0,31.3,70.9,1000.5,353.6,0.7,1.9,11.0,0.13,25.4,27.3,"15:19:28",1
"23/08/17","15:30",0.0,31.3,71.4,1000.3,354.0,0.7,2.0,342.5,0.09,25.5,27.4,"15:25:04",1
"23/08/17","15:40",0.0,30.9,72.0,1000.3,345.0,1.0,2.2,356.0,0.06,25.3,27.2,"15:39:04",1
"23/08/17","15:50",0.0,30.4,72.6,1000.3,339.1,1.2,2.8,345.3,0.08,25.0,27.2,"15:40:02",1
"23/08/17","16:00",0.0,30.4,72.8,999.8,333.6,1.2,2.4,339.5,0.09,25.0,27.4,"15:51:04",1
"23/08/17","16:10",0.0,30.2,73.3,1000.0,335.3,1.1,2.6,343.0,0.07,24.9,27.5,"16:02:08",1
"23/08/17","16:20",0.0,30.0,73.6,999.6,341.4,1.7,3.7,352.1,0.04,24.8,27.4,"16:13:20",1
"23/08/17","16:30",0.0,29.8,74.5,999.6,355.5,0.8,1.9,354.2,0.01,24.8,27.4,"16:20:16",1
"23/08/17","16:40",0.0,29.6,75.3,999.3,340.6,0.7,1.6,350.3,0.01,24.8,27.3,"16:35:52",1
"23/08/17","16:50",0.0,29.7,76.5,999.3,187.2,0.5,1.3,234.7,0.03,25.2,27.2,"16:49:20",1
"23/08/17","17:00",0.0,29.6,76.1,999.6,216.3,0.5,1.6,215.5,0.05,25.0,27.2,"16:58:40",1
"23/08/17","17:10",0.0,29.8,75.3,999.3,146.7,0.8,2.0,182.2,0.04,25.0,27.2,"17:00:16",1
"23/08/17","17:20",0.0,29.7,75.2,999.3,157.0,0.7,1.6,185.1,0.03,24.9,27.3,"17:10:24",1
"23/08/17","17:30",0.0,29.6,75.7,999.3,159.9,0.6,1.7,125.8,0.02,24.9,27.2,"17:25:52",1
"23/08/17","17:40",0.0,29.7,75.7,999.3,219.6,0.6,2.7,209.1,0.01,25.0,27.2,"17:30:56",1
"23/08/17","17:50",0.0,29.6,76.1,999.6,292.2,0.2,1.0,253.0,0.01,25.0,27.2,"17:46:24",1
"23/08/17","18:00",0.0,29.6,77.5,999.3,301.7,0.6,1.4,353.3,0.00,25.3,27.2,"17:55:52",1
"23/08/17","18:10",0.0,29.1,78.8,999.1,341.8,0.7,1.4,318.7,0.00,25.1,27.3,"18:00:56",1
"23/08/17","18:20",0.0,29.0,79.8,999.1,343.4,0.3,1.0,355.4,0.00,25.2,27.5,"18:18:48",1
"23/08/17","18:30",0.0,28.9,80.8,999.8,336.4,0.7,1.4,358.8,0.00,25.3,27.2,"18:20:16",1
"23/08/17","18:40",0.0,28.7,82.1,999.8,348.2,0.5,1.3,2.1,0.00,25.4,27.1,"18:34:40",1
"23/08/17","18:50",0.0,28.3,83.3,1000.0,323.7,0.6,1.1,339.7,0.00,25.2,27.2,"18:43:04",1
"23/08/17","19:00",0.0,28.0,84.2,1000.3,342.8,0.3,0.8,341.0,0.00,25.1,27.2,"18:51:04",1
"23/08/17","19:10",0.0,28.0,84.5,1000.5,115.7,0.7,1.6,112.8,0.00,25.2,27.2,"19:04:16",1
"23/08/17","19:20",0.0,28.1,83.9,1000.8,107.5,0.7,1.9,122.9,0.00,25.2,27.1,"19:10:56",1
"23/08/17","19:30",0.0,28.0,82.9,1001.0,146.9,0.8,2.4,166.1,0.00,24.9,27.1,"19:28:08",1
"23/08/17","19:40",0.0,28.1,81.9,1000.8,165.4,0.7,1.4,145.6,0.00,24.8,27.2,"19:35:28",1
"23/08/17","19:50",0.0,28.2,81.4,1001.0,127.8,0.5,2.1,89.5,0.00,24.7,27.1,"19:45:44",1
"23/08/17","20:00",0.0,28.2,81.7,1001.5,324.3,0.5,1.0,324.4,0.00,24.8,27.1,"19:50:40",1
"23/08/17","20:10",0.0,27.8,82.5,1001.5,243.2,0.3,0.9,130.8,0.00,24.6,27.0,"20:09:36",1
"23/08/17","20:20",0.0,27.7,83.0,1001.5,329.0,0.5,1.2,103.6,0.00,24.6,27.0,"20:11:52",1
"23/08/17","20:30",0.0,27.5,83.3,1001.7,279.1,0.3,1.0,350.4,0.00,24.5,27.1,"20:20:16",1
"23/08/17","20:40",0.0,27.3,84.0,1001.5,334.0,0.8,1.3,342.7,0.00,24.4,27.1,"20:35:12",1
"23/08/17","20:50",0.0,27.0,84.5,1001.7,317.3,0.3,1.1,334.9,0.00,24.2,26.9,"20:40:02",1
"23/08/17","21:00",0.0,26.8,84.7,1001.9,328.3,0.6,1.4,350.3,0.00,24.0,26.9,"20:51:52",1
"23/08/17","21:10",0.0,26.6,84.9,1001.9,318.3,0.6,1.0,320.5,0.00,23.9,26.9,"21:06:24",1
"23/08/17","21:20",0.0,26.5,85.5,1001.7,319.4,0.5,1.6,33.7,0.00,23.9,26.9,"21:18:24",1
"23/08/17","21:30",0.0,26.5,85.6,1001.9,4.3,0.6,1.6,8.6,0.00,23.9,26.8,"21:26:00",1
"23/08/17","21:40",0.0,26.5,85.3,1001.9,350.9,0.5,1.2,358.8,0.00,23.9,26.8,"21:32:40",1
"23/08/17","21:50",0.0,26.5,84.9,1001.9,335.8,0.5,1.7,83.9,0.00,23.8,26.9,"21:46:08",1
"23/08/17","22:00",0.0,26.6,84.4,1001.7,340.0,0.5,1.2,48.8,0.00,23.8,26.8,"21:58:16",1
"23/08/17","22:10",0.0,26.5,83.9,1002.2,316.4,0.3,0.9,313.6,0.00,23.6,26.7,"22:01:12",1
"23/08/17","22:20",0.0,26.3,83.6,1001.7,346.5,0.6,1.3,23.9,0.00,23.3,26.7,"22:10:48",1
"23/08/17","22:30",0.0,26.3,83.3,1002.2,347.5,0.7,1.3,351.2,0.00,23.3,26.7,"22:23:12",1
"23/08/17","22:40",0.0,26.2,83.3,1002.4,331.2,0.5,1.1,333.7,0.00,23.2,26.7,"22:33:44",1
"23/08/17","22:50",0.0,26.1,83.4,1002.2,324.2,0.5,1.0,329.3,0.00,23.1,26.7,"22:47:52",1
"23/08/17","23:00",0.0,25.9,84.0,1002.4,332.6,0.7,1.0,335.8,0.00,23.0,26.7,"22:51:20",1
"23/08/17","23:10",0.0,25.9,85.0,1002.2,308.6,0.8,1.2,337.6,0.00,23.2,26.8,"23:02:00",1
"23/08/17","23:20",0.0,25.8,85.8,1001.9,327.6,0.7,1.2,334.7,0.00,23.3,26.6,"23:18:08",1
"23/08/17","23:30",0.0,25.6,86.3,1002.4,293.8,0.5,0.9,338.4,0.00,23.2,26.4,"23:20:16",1
"23/08/17","23:40",0.0,25.4,86.8,1002.6,296.8,0.5,1.2,298.6,0.00,23.1,26.6,"23:35:44",1
"23/08/17","23:50",0.0,25.3,87.4,1002.4,307.1,1.0,1.8,335.7,0.00,23.1,26.4,"23:42:24",1
"23/08/17","24:00",0.0,25.2,87.8,1002.9,331.0,0.6,1.2,336.3,0.00,23.1,26.5,"23:55:28",1
